KLM806 EDDS-LOWI

Flight info

Callsign KLM806
Flight time 0h 32m
Altitude 19000
Route KUNOD2B/25 KUNOD Y326 MOMUK L607 XEBIX XEBI1B
Aircraft B738/M-V/N

Departure

Time 2026-05-04 19:24
Airport Stuttgart Airport (EDDS)

Arrival

Time 2026-05-04 19:56
Airport Innsbruck Airport (LOWI)
Time Latitude Longitude Altitude Speed Heading
2026-05-04 19:08 48.68870 9.19723 1284 ft 0 kts 88°
2026-05-04 19:10 48.68870 9.19724 1284 ft 0 kts 88°
2026-05-04 19:11 48.68872 9.19800 1284 ft 9 kts 102°
2026-05-04 19:12 48.68837 9.19883 1284 ft 11 kts 125°
2026-05-04 19:12 48.68860 9.20151 1284 ft 14 kts 74°
2026-05-04 19:12 48.68887 9.20292 1284 ft 15 kts 73°
2026-05-04 19:13 48.68916 9.20439 1284 ft 14 kts 73°
2026-05-04 19:13 48.68942 9.20575 1284 ft 15 kts 73°
2026-05-04 19:13 48.68971 9.20728 1284 ft 17 kts 74°
2026-05-04 19:13 48.69008 9.20925 1284 ft 20 kts 75°
2026-05-04 19:14 48.69043 9.21120 1284 ft 19 kts 73°
2026-05-04 19:14 48.69080 9.21305 1284 ft 18 kts 71°
2026-05-04 19:14 48.69114 9.21480 1284 ft 17 kts 75°
2026-05-04 19:14 48.69145 9.21646 1284 ft 16 kts 74°
2026-05-04 19:15 48.69175 9.21803 1284 ft 17 kts 74°
2026-05-04 19:15 48.69213 9.22005 1284 ft 20 kts 74°
2026-05-04 19:15 48.69251 9.22208 1284 ft 21 kts 74°
2026-05-04 19:15 48.69295 9.22442 1284 ft 23 kts 73°
2026-05-04 19:16 48.69339 9.22670 1284 ft 24 kts 74°
2026-05-04 19:16 48.69383 9.22903 1284 ft 22 kts 73°
2026-05-04 19:16 48.69424 9.23126 1284 ft 21 kts 75°
2026-05-04 19:16 48.69465 9.23339 1284 ft 21 kts 73°
2026-05-04 19:17 48.69504 9.23542 1284 ft 20 kts 75°
2026-05-04 19:17 48.69539 9.23736 1284 ft 19 kts 75°
2026-05-04 19:17 48.69573 9.23921 1284 ft 18 kts 73°
2026-05-04 19:17 48.69607 9.24080 1284 ft 15 kts 75°
2026-05-04 19:18 48.69586 9.24227 1284 ft 14 kts 120°
2026-05-04 19:18 48.69548 9.24295 1284 ft 0 kts 156°
2026-05-04 19:20 48.69547 9.24295 1284 ft 0 kts 156°
2026-05-04 19:22 48.69547 9.24296 1284 ft 0 kts 156°
2026-05-04 19:22 48.69514 9.24312 1284 ft 13 kts 166°
2026-05-04 19:22 48.69431 9.24315 1284 ft 13 kts 196°
2026-05-04 19:23 48.69376 9.24243 1284 ft 0 kts 252°
2026-05-04 19:23 48.69356 9.24135 1284 ft 34 kts 254°
2026-05-04 19:24 48.69223 9.23420 1284 ft 105 kts 253°
2026-05-04 19:24 48.68956 9.22033 1351 ft 158 kts 254°
2026-05-04 19:24 48.68662 9.20428 2146 ft 154 kts 257°
2026-05-04 19:24 48.68381 9.18889 2974 ft 158 kts 255°
2026-05-04 19:25 48.68053 9.17199 3394 ft 179 kts 255°
2026-05-04 19:25 48.67677 9.15271 3756 ft 204 kts 254°
2026-05-04 19:25 48.67250 9.13089 4063 ft 229 kts 254°
2026-05-04 19:25 48.66763 9.10666 4523 ft 247 kts 250°
2026-05-04 19:26 48.65874 9.08432 4875 ft 251 kts 225°
2026-05-04 19:26 48.64386 9.07094 5000 ft 252 kts 195°
2026-05-04 19:26 48.62646 9.07019 5007 ft 253 kts 168°
2026-05-04 19:26 48.61068 9.08144 5002 ft 252 kts 142°
2026-05-04 19:27 48.60003 9.10217 5002 ft 252 kts 115°
2026-05-04 19:27 48.59669 9.12814 5009 ft 259 kts 88°
2026-05-04 19:27 48.60136 9.15481 5021 ft 268 kts 64°
2026-05-04 19:27 48.61079 9.17938 5042 ft 273 kts 63°
2026-05-04 19:28 48.61706 9.20602 5025 ft 274 kts 78°
2026-05-04 19:28 48.61813 9.23461 5001 ft 274 kts 98°
2026-05-04 19:28 48.61142 9.26128 5003 ft 273 kts 123°
2026-05-04 19:28 48.59903 9.28309 5021 ft 273 kts 135°
2026-05-04 19:29 48.58520 9.30282 5013 ft 272 kts 138°
2026-05-04 19:29 48.57112 9.32144 5008 ft 272 kts 139°
2026-05-04 19:29 48.56137 9.33402 5005 ft 272 kts 140°
2026-05-04 19:30 48.53112 9.37298 5001 ft 273 kts 140°
2026-05-04 19:30 48.51664 9.39159 5000 ft 273 kts 140°
2026-05-04 19:30 48.50217 9.41017 5000 ft 273 kts 140°
2026-05-04 19:30 48.48782 9.42857 4998 ft 273 kts 140°
2026-05-04 19:31 48.47332 9.44717 4998 ft 274 kts 140°
2026-05-04 19:31 48.45883 9.46573 4997 ft 274 kts 140°
2026-05-04 19:31 48.44428 9.48437 4995 ft 274 kts 140°
2026-05-04 19:31 48.42980 9.50291 4994 ft 273 kts 140°
2026-05-04 19:32 48.41531 9.52145 4991 ft 273 kts 140°
2026-05-04 19:32 48.40082 9.53998 4992 ft 273 kts 140°
2026-05-04 19:32 48.38636 9.55845 4990 ft 272 kts 140°
2026-05-04 19:32 48.37192 9.57691 4988 ft 272 kts 140°
2026-05-04 19:33 48.35746 9.59539 4987 ft 273 kts 140°
2026-05-04 19:33 48.34225 9.61268 5225 ft 278 kts 148°
2026-05-04 19:33 48.32517 9.62570 6250 ft 273 kts 156°
2026-05-04 19:33 48.30753 9.63567 7137 ft 276 kts 161°
2026-05-04 19:34 48.28912 9.64461 7953 ft 280 kts 162°
2026-05-04 19:34 48.27073 9.65362 8949 ft 276 kts 161°
2026-05-04 19:34 48.25251 9.66272 9814 ft 278 kts 162°
2026-05-04 19:34 48.23381 9.67095 10578 ft 281 kts 168°
2026-05-04 19:35 48.21441 9.67529 11349 ft 284 kts 176°
2026-05-04 19:35 48.19439 9.67612 12040 ft 291 kts 181°
2026-05-04 19:35 48.17376 9.67555 12582 ft 302 kts 182°
2026-05-04 19:35 48.15240 9.67514 13113 ft 313 kts 181°
2026-05-04 19:36 48.12999 9.67506 13449 ft 329 kts 181°
2026-05-04 19:36 48.10678 9.67635 14011 ft 338 kts 173°
2026-05-04 19:36 48.08412 9.68681 14665 ft 347 kts 156°
2026-05-04 19:36 48.06350 9.70620 15303 ft 355 kts 145°
2026-05-04 19:37 48.04456 9.73050 15930 ft 362 kts 141°
2026-05-04 19:37 48.02597 9.75620 16530 ft 367 kts 141°
2026-05-04 19:37 48.00714 9.78154 17119 ft 371 kts 141°
2026-05-04 19:37 47.98736 9.80738 17714 ft 375 kts 142°
2026-05-04 19:38 47.96747 9.83299 18243 ft 382 kts 142°
2026-05-04 19:38 47.94701 9.85921 18574 ft 392 kts 142°
2026-05-04 19:38 47.92613 9.88590 18879 ft 399 kts 142°
2026-05-04 19:38 47.90498 9.91289 18940 ft 400 kts 142°
2026-05-04 19:39 47.88419 9.93939 18950 ft 398 kts 142°
2026-05-04 19:39 47.86319 9.96615 18956 ft 396 kts 142°
2026-05-04 19:39 47.84221 9.99289 18960 ft 396 kts 142°
2026-05-04 19:39 47.82084 10.01885 18970 ft 395 kts 145°
2026-05-04 19:40 47.79892 10.04332 18978 ft 394 kts 147°
2026-05-04 19:40 47.77671 10.06738 18982 ft 394 kts 147°
2026-05-04 19:40 47.75503 10.09100 18985 ft 394 kts 147°
2026-05-04 19:40 47.73256 10.11560 18985 ft 392 kts 147°
2026-05-04 19:41 47.71108 10.13916 18983 ft 377 kts 147°
2026-05-04 19:41 47.69049 10.16176 18982 ft 367 kts 147°
2026-05-04 19:41 47.67010 10.18415 18983 ft 362 kts 147°
2026-05-04 19:41 47.64986 10.20632 18983 ft 363 kts 147°
2026-05-04 19:42 47.62942 10.22876 18989 ft 366 kts 147°
2026-05-04 19:42 47.60901 10.25115 18991 ft 363 kts 147°
2026-05-04 19:42 47.58875 10.27337 18992 ft 361 kts 147°
2026-05-04 19:42 47.56858 10.29547 18745 ft 358 kts 147°
2026-05-04 19:43 47.54864 10.31742 18463 ft 354 kts 147°
2026-05-04 19:43 47.52919 10.33890 18388 ft 342 kts 147°
2026-05-04 19:43 47.51036 10.35954 18294 ft 332 kts 147°
2026-05-04 19:43 47.49220 10.37942 18059 ft 327 kts 147°
2026-05-04 19:44 47.47394 10.39936 17754 ft 324 kts 147°
2026-05-04 19:44 47.45603 10.41891 17587 ft 316 kts 147°
2026-05-04 19:44 47.43851 10.43811 17419 ft 310 kts 147°
2026-05-04 19:44 47.42138 10.45674 17333 ft 301 kts 147°
2026-05-04 19:45 47.40469 10.47478 17236 ft 292 kts 149°
2026-05-04 19:45 47.38791 10.49061 17144 ft 282 kts 153°
2026-05-04 19:45 47.37101 10.50426 17102 ft 270 kts 156°
2026-05-04 19:45 47.35484 10.51638 16987 ft 256 kts 157°
2026-05-04 19:46 47.33902 10.52861 16648 ft 259 kts 156°
2026-05-04 19:46 47.32271 10.54138 16240 ft 271 kts 155°
2026-05-04 19:46 47.30578 10.55477 15699 ft 280 kts 155°
2026-05-04 19:46 47.28923 10.57092 14943 ft 293 kts 139°
2026-05-04 19:47 47.27888 10.59708 14190 ft 304 kts 109°
2026-05-04 19:47 47.27798 10.62837 13551 ft 309 kts 86°
2026-05-04 19:47 47.28302 10.65895 13013 ft 307 kts 74°
2026-05-04 19:47 47.28955 10.68849 12502 ft 298 kts 79°
2026-05-04 19:48 47.29263 10.71812 12036 ft 289 kts 88°
2026-05-04 19:48 47.29364 10.74728 11578 ft 281 kts 91°
2026-05-04 19:48 47.29428 10.77569 11115 ft 275 kts 91°
2026-05-04 19:48 47.29490 10.80353 10663 ft 269 kts 91°
2026-05-04 19:49 47.29588 10.83066 10223 ft 263 kts 89°
2026-05-04 19:49 47.29714 10.85727 9793 ft 257 kts 88°
2026-05-04 19:49 47.29814 10.88322 9372 ft 251 kts 89°
2026-05-04 19:49 47.29908 10.90841 8963 ft 240 kts 88°
2026-05-04 19:50 47.29998 10.93240 8575 ft 230 kts 88°
2026-05-04 19:50 47.30084 10.95539 8203 ft 220 kts 88°
2026-05-04 19:50 47.30166 10.97748 7849 ft 212 kts 88°
2026-05-04 19:50 47.30244 10.99850 7514 ft 204 kts 88°
2026-05-04 19:51 47.30320 11.01904 7186 ft 197 kts 88°
2026-05-04 19:51 47.30357 11.03890 6871 ft 191 kts 94°
2026-05-04 19:51 47.30185 11.05793 6580 ft 184 kts 101°
2026-05-04 19:51 47.29906 11.07596 6266 ft 176 kts 103°
2026-05-04 19:52 47.29632 11.09319 5971 ft 169 kts 103°
2026-05-04 19:52 47.29371 11.10991 5691 ft 165 kts 103°
2026-05-04 19:52 47.29118 11.12622 5420 ft 162 kts 103°
2026-05-04 19:52 47.28869 11.14224 5150 ft 159 kts 103°
2026-05-04 19:53 47.28623 11.15811 4887 ft 159 kts 103°
2026-05-04 19:53 47.28380 11.17388 4620 ft 156 kts 103°
2026-05-04 19:53 47.28143 11.18919 4398 ft 149 kts 103°
2026-05-04 19:53 47.27916 11.20392 4128 ft 146 kts 102°
2026-05-04 19:54 47.27649 11.21808 3834 ft 144 kts 114°
2026-05-04 19:54 47.27071 11.23049 3487 ft 146 kts 128°
2026-05-04 19:54 47.26459 11.24174 3385 ft 138 kts 124°
2026-05-04 19:54 47.25925 11.25313 3210 ft 133 kts 123°
2026-05-04 19:55 47.25501 11.26509 2989 ft 134 kts 113°
2026-05-04 19:55 47.25337 11.27858 2805 ft 136 kts 91°
2026-05-04 19:55 47.25477 11.29232 2563 ft 137 kts 84°
2026-05-04 19:55 47.25616 11.30604 2363 ft 134 kts 84°
2026-05-04 19:56 47.25763 11.31939 2121 ft 132 kts 84°
2026-05-04 19:56 47.25901 11.33256 1928 ft 127 kts 84°
2026-05-04 19:56 47.26023 11.34449 1909 ft 110 kts 80°
2026-05-04 19:56 47.26113 11.35266 1908 ft 39 kts 81°
2026-05-04 19:57 47.26143 11.35546 1908 ft 12 kts 91°
2026-05-04 19:57 47.26124 11.35653 1908 ft 11 kts 46°
2026-05-04 19:57 47.26154 11.35592 1908 ft 13 kts 257°
2026-05-04 19:57 47.26136 11.35429 1908 ft 16 kts 260°
2026-05-04 19:58 47.26107 11.35283 1908 ft 15 kts 221°
2026-05-04 19:58 47.26012 11.35271 1908 ft 14 kts 172°
2026-05-04 19:58 47.25922 11.35288 1908 ft 13 kts 188°
2026-05-04 19:58 47.25890 11.35184 1908 ft 12 kts 265°
2026-05-04 19:59 47.25885 11.35128 1908 ft 0 kts 262°
2026-05-04 19:59 47.25872 11.35101 1908 ft 10 kts 203°
2026-05-04 19:59 47.25858 11.35095 1908 ft 7 kts 190°
2026-05-04 19:59 47.25830 11.35094 1908 ft 4 kts 173°
2026-05-04 20:00 47.25824 11.35095 1908 ft 0 kts 174°